DW0067 Weather Reports


time (UTC)temp
C
wind
direction
speed
KPH
gust
KPH
rain 1hr
cm
rain 24hr
cm
rain mn
cm
humidity
%
barometer
mb
20260502160204 13 248 0.0 0.0 0.23 0.28 0.28 80 1010.3
20260502151704 14 248 0.0 0.0 0.15 0.15 0.15 78 1010.9
20260502151204 15 248 0.0 0.0 0.15 0.15 0.15 78 1010.9
20260502150705 15 248 0.0 0.0 0.08 0.08 0.08 77 1010.9
20260502150204 15 248 0.0 0.0 0.08 0.08 0.08 76 1010.9
20260502130704 19 248 0.0 0.0 0.00 0.00 0.00 55 1011.4
20260502130204 19 248 0.0 0.0 0.00 0.00 0.00 57 1011.4
20260502123704 18 248 0.0 0.0 0.00 0.00 0.00 58 1011.9
20260502123203 18 248 0.0 0.0 0.00 0.00 0.00 58 1011.9
20260502122703 18 248 0.0 0.0 0.00 0.00 0.00 59 1011.9
20260502122204 18 248 0.0 0.0 0.00 0.00 0.00 58 1011.9
20260502121704 18 248 0.0 0.0 0.00 0.00 0.00 59 1012.1
20260502121204 18 248 0.0 0.0 0.00 0.00 0.00 59 1012.1
20260502120704 18 248 0.0 0.0 0.00 0.00 0.00 59 1012.1
20260502120203 18 248 0.0 0.0 0.00 0.00 0.00 60 1012.1
20260502115204 18 248 0.0 0.0 0.00 0.00 0.00 61 1012.5
20260502114704 18 248 0.0 0.0 0.00 0.00 0.00 60 1012.5
20260502114204 18 248 0.0 0.0 0.00 0.00 0.00 60 1012.5
20260502113704 18 248 0.0 0.0 0.00 0.00 0.00 63 1012.6
20260502113204 18 248 0.0 0.0 0.00 0.00 0.00 62 1012.6
20260502112704 18 248 0.0 0.0 0.00 0.00 0.00 63 1012.6
20260502112204 17 248 0.0 0.0 0.00 0.00 0.00 64 1012.6
20260502111704 17 248 0.0 0.0 0.00 0.00 0.00 64 1012.9
20260502111204 17 248 0.0 0.0 0.00 0.00 0.00 64 1012.9
20260502110704 17 248 0.0 0.0 0.00 0.00 0.00 62 1012.9
20260502110204 17 248 0.0 0.0 0.00 0.00 0.00 64 1012.9
20260502105703 17 248 0.0 0.0 0.00 0.00 0.00 64 1013.3
20260502104203 17 248 0.0 0.0 0.00 0.00 0.00 66 1013.3
20260502103703 17 248 0.0 0.0 0.00 0.00 0.00 66 1013.7
20260502103204 16 248 0.0 0.0 0.00 0.00 0.00 68 1013.7
20260502102704 16 248 0.0 0.0 0.00 0.00 0.00 66 1013.7
20260502102204 16 248 0.0 0.0 0.00 0.00 0.00 68 1013.7
20260502101704 16 248 0.0 0.0 0.00 0.00 0.00 69 1013.8
20260502101204 16 248 0.0 0.0 0.00 0.00 0.00 71 1013.8
20260502100204 16 248 0.0 0.0 0.00 0.00 0.00 72 1013.8
20260502091204 13 248 0.0 0.0 0.00 0.00 0.00 78 1015.1
20260502090705 13 248 0.0 0.0 0.00 0.00 0.00 80 1015.1
20260502090204 13 248 0.0 0.0 0.00 0.00 0.00 80 1015.1
20260502071204 8 248 0.0 0.0 0.00 0.00 0.00 79 1017.6
20260502070704 8 248 0.0 0.0 0.00 0.00 0.00 79 1017.6
20260502070204 7 248 0.0 0.0 0.00 0.00 0.00 79 1017.6
20260502065704 7 248 0.0 0.0 0.00 0.00 0.00 79 1017.8
20260502065204 7 248 0.0 0.0 0.00 0.00 0.00 80 1017.8
20260502064204 7 248 0.0 0.0 0.00 0.00 0.00 80 1017.8
20260502063704 7 248 0.0 0.0 0.00 0.00 0.00 80 1018.1
20260502063204 7 248 0.0 0.0 0.00 0.00 0.00 80 1018.1
20260502062705 7 248 0.0 0.0 0.00 0.00 0.00 80 1018.1
20260502062204 7 248 0.0 0.0 0.00 0.00 0.00 80 1018.1
20260502061704 7 248 0.0 0.0 0.00 0.00 0.00 80 1018.1
20260502061204 7 248 0.0 0.0 0.00 0.00 0.00 81 1018.1
20260502060703 7 248 0.0 0.0 0.00 0.00 0.00 81 1018.1
20260502060204 7 248 0.0 0.0 0.00 0.00 0.00 81 1018.1
20260502055703 6 248 0.0 0.0 0.00 0.00 0.00 81 1018.1
20260502055204 6 248 0.0 0.0 0.00 0.00 0.00 81 1018.1
20260502054704 6 248 0.0 0.0 0.00 0.00 0.00 81 1018.1
20260502054204 6 248 0.0 0.0 0.00 0.00 0.00 81 1018.1
20260502053204 6 248 0.0 0.0 0.00 0.00 0.00 82 1018.1
20260502052704 6 248 0.0 0.0 0.00 0.00 0.00 82 1018.1
20260502052205 6 248 0.0 0.0 0.00 0.00 0.00 82 1018.1
20260502051203 6 248 0.0 0.0 0.00 0.00 0.00 82 1018.0
20260502050704 6 248 0.0 0.0 0.00 0.00 0.00 82 1018.0
20260502050204 6 248 0.0 0.0 0.00 0.00 0.00 82 1018.0
20260502045705 6 248 0.0 0.0 0.00 0.00 0.00 82 1018.1
20260502045204 6 248 0.0 0.0 0.00 0.00 0.00 82 1018.1
20260502044704 6 248 0.0 0.0 0.00 0.00 0.00 82 1018.1
20260502044204 6 248 0.0 0.0 0.00 0.00 0.00 82 1018.1
20260502043703 6 248 0.0 0.0 0.00 0.00 0.00 82 1018.1
20260502043204 6 248 0.0 0.0 0.00 0.00 0.00 82 1018.1
20260502042704 6 248 0.0 0.0 0.00 0.00 0.00 82 1018.1
20260502042203 6 248 0.0 0.0 0.00 0.00 0.00 82 1018.1
20260502041704 6 248 0.0 0.0 0.00 0.00 0.00 82 1018.1
20260502040704 6 248 0.0 0.0 0.00 0.00 0.00 82 1018.1
20260502040204 6 248 0.0 0.0 0.00 0.00 0.00 82 1018.1
20260502035703 6 248 0.0 0.0 0.00 0.00 0.00 82 1018.3
20260502035204 6 248 0.0 0.0 0.00 0.00 0.00 82 1018.3
20260502034705 6 248 0.0 0.0 0.00 0.00 0.00 82 1018.3
20260502034205 6 248 0.0 0.0 0.00 0.00 0.00 82 1018.3
20260502033704 6 248 0.0 0.0 0.00 0.00 0.00 82 1018.4
20260502033204 6 248 0.0 0.0 0.00 0.00 0.00 82 1018.4
20260502032704 6 248 0.0 0.0 0.00 0.00 0.00 82 1018.4
20260502031704 6 248 0.0 0.0 0.00 0.00 0.00 82 1018.4
20260502031203 6 248 0.0 0.0 0.00 0.00 0.00 82 1018.4
20260502030704 6 248 0.0 0.0 0.00 0.00 0.00 82 1018.4
20260502030204 6 248 0.0 0.0 0.00 0.00 0.00 82 1018.4
20260502025204 6 248 0.0 0.0 0.00 0.00 0.00 82 1018.3
20260502024703 6 248 0.0 0.0 0.00 0.00 0.00 82 1018.3
20260502024204 6 248 0.0 0.0 0.00 0.00 0.00 82 1018.3
20260502023704 6 248 0.0 0.0 0.00 0.00 0.00 82 1018.3
20260502023204 6 248 0.0 0.0 0.00 0.00 0.00 82 1018.3
20260502022704 6 248 0.0 0.0 0.00 0.00 0.00 82 1018.3
20260502022203 7 248 0.0 0.0 0.00 0.00 0.00 82 1018.3
20260502021704 7 248 0.0 0.0 0.00 0.00 0.00 82 1018.4
20260502021203 7 248 0.0 0.0 0.00 0.00 0.00 82 1018.4
20260502020704 7 248 0.0 0.0 0.00 0.00 0.00 82 1018.4
20260502020204 7 248 0.0 0.0 0.00 0.00 0.00 82 1018.4
20260502015204 7 248 0.0 0.0 0.00 0.00 0.00 82 1018.5
20260502014704 7 248 0.0 0.0 0.00 0.00 0.00 82 1018.5
20260502014205 7 248 0.0 0.0 0.00 0.00 0.00 82 1018.5
20260502013705 7 248 0.0 0.0 0.00 0.00 0.00 82 1018.3
20260502013204 7 248 0.0 0.0 0.00 0.00 0.00 82 1018.3
20260502012703 7 248 0.0 0.0 0.00 0.00 0.00 82 1018.3
20260502011703 7 248 0.0 0.0 0.00 0.00 0.00 82 1018.3
20260502011204 8 248 0.0 0.0 0.00 0.00 0.00 82 1018.3
20260502010704 8 248 0.0 0.0 0.00 0.00 0.00 82 1018.3
20260502010204 8 248 0.0 0.0 0.00 0.00 0.00 82 1018.3
20260502005704 8 248 0.0 0.0 0.00 0.00 0.00 82 1018.3
20260502004704 8 248 0.0 0.0 0.00 0.00 0.00 82 1018.3
20260502004204 8 248 0.0 0.0 0.00 0.00 0.00 82 1018.3
20260502003704 8 248 0.0 0.0 0.00 0.00 0.00 81 1018.3
20260502003204 8 248 0.0 0.0 0.00 0.00 0.00 81 1018.3
20260502002704 9 248 0.0 0.0 0.00 0.00 0.00 81 1018.3
20260502002203 9 248 0.0 0.0 0.00 0.00 0.00 81 1018.3
20260502001704 9 248 0.0 0.0 0.00 0.00 0.00 82 1018.5
20260502001205 9 248 0.0 0.0 0.00 0.00 0.00 82 1018.5
20260502000703 9 248 0.0 0.0 0.00 0.00 0.00 82 1018.5
20260502000205 9 248 0.0 0.0 0.00 0.00 0.00 81 1018.5
20260501235204 10 248 0.0 0.0 0.00 0.00 0.00 81 1018.6
20260501234704 10 248 0.0 0.0 0.00 0.00 0.00 81 1018.6
20260501234204 10 248 0.0 0.0 0.00 0.00 0.00 81 1018.6
20260501233705 10 248 0.0 0.0 0.00 0.00 0.00 81 1018.5
20260501233204 10 248 0.0 0.0 0.00 0.00 0.00 81 1018.5
20260501232704 10 248 0.0 0.0 0.00 0.00 0.00 81 1018.5
20260501232204 10 248 0.0 0.0 0.00 0.00 0.00 81 1018.5
20260501231704 10 248 0.0 0.0 0.00 0.00 0.00 81 1018.5
20260501231204 10 248 0.0 0.0 0.00 0.00 0.00 81 1018.5
20260501225704 11 248 0.0 0.0 0.00 0.00 0.00 81 1018.3
20260501224704 11 248 0.0 0.0 0.00 0.00 0.00 81 1018.3
20260501224204 11 248 0.0 0.0 0.00 0.00 0.00 81 1018.3
20260501223704 11 248 0.0 0.0 0.00 0.00 0.00 81 1018.1
20260501223204 11 248 0.0 0.0 0.00 0.00 0.00 81 1018.1
20260501222204 11 248 0.0 0.0 0.00 0.00 0.00 81 1018.1
20260501221704 11 248 0.0 0.0 0.00 0.00 0.00 81 1018.4
20260501221204 11 248 0.0 0.0 0.00 0.00 0.00 81 1018.4
20260501220704 11 248 0.0 0.0 0.00 0.00 0.00 81 1018.4
20260501215704 11 248 0.0 0.0 0.00 0.00 0.00 81 1018.1
20260501215204 11 248 0.0 0.0 0.00 0.00 0.00 81 1018.1
20260501214205 11 248 0.0 0.0 0.00 0.00 0.00 81 1018.1
20260501213704 12 248 0.0 0.0 0.00 0.00 0.00 81 1017.9
20260501212704 12 248 0.0 0.0 0.00 0.00 0.00 81 1017.9
20260501212204 12 248 0.0 0.0 0.00 0.00 0.00 81 1017.9
20260501211204 12 248 0.0 0.0 0.00 0.00 0.00 80 1017.8
20260501210705 12 248 0.0 0.0 0.00 0.00 0.00 80 1017.8
20260501210204 12 248 0.0 0.0 0.00 0.00 0.00 79 1017.8
20260501205705 12 248 0.0 0.0 0.00 0.00 0.00 79 1017.6
20260501204704 12 248 0.0 0.0 0.00 0.00 0.00 78 1017.6
20260501204205 13 248 0.0 0.0 0.00 0.00 0.00 78 1017.6
20260501203705 13 248 0.0 0.0 0.00 0.00 0.00 78 1017.3
20260501203204 13 248 0.0 0.0 0.00 0.00 0.00 78 1017.3
20260501202704 13 248 0.0 0.0 0.00 0.00 0.00 78 1017.3
20260501202204 14 248 0.0 0.0 0.00 0.00 0.00 77 1017.3
20260501201704 14 248 0.0 0.0 0.00 0.00 0.00 76 1016.9
20260501201204 15 248 0.0 0.0 0.00 0.00 0.00 76 1016.9
20260501200703 15 248 0.0 0.0 0.00 0.00 0.00 76 1016.9
20260501200205 15 248 0.0 0.0 0.00 0.00 0.00 76 1016.9
20260501195704 15 248 0.0 0.0 0.00 0.00 0.00 76 1016.8
20260501195204 15 248 0.0 0.0 0.00 0.00 0.00 76 1016.8
20260501194705 15 248 0.0 0.0 0.00 0.00 0.00 75 1016.8
20260501194205 16 248 0.0 0.0 0.00 0.00 0.00 74 1016.8
20260501193704 16 248 0.0 0.0 0.00 0.00 0.00 74 1016.6
20260501193204 16 248 0.0 0.0 0.00 0.00 0.00 73 1016.6
20260501192705 16 248 0.0 0.0 0.00 0.00 0.00 73 1016.6
20260501192204 16 248 0.0 0.0 0.00 0.00 0.00 72 1016.6
20260501191704 16 248 0.0 0.0 0.00 0.00 0.00 72 1016.2
20260501190704 16 248 0.0 0.0 0.00 0.00 0.00 71 1016.2
20260501190204 16 248 0.0 0.0 0.00 0.00 0.00 70 1016.2
20260501185703 16 248 0.0 0.0 0.00 0.00 0.00 69 1016.1
20260501185205 17 248 0.0 0.0 0.00 0.00 0.00 70 1016.1
20260501184704 17 248 0.0 0.0 0.00 0.00 0.00 70 1016.1
20260501184204 17 248 0.0 0.0 0.00 0.00 0.00 71 1016.1
20260501183704 17 248 0.0 0.0 0.00 0.00 0.00 71 1015.6
20260501183204 17 248 0.0 0.0 0.00 0.00 0.00 70 1015.6
20260501182704 17 248 0.0 0.0 0.00 0.00 0.00 71 1015.6
20260501182204 17 248 0.0 0.0 0.00 0.00 0.00 70 1015.6
20260501181704 17 248 0.0 0.0 0.00 0.00 0.00 70 1015.6
20260501181204 17 248 0.0 0.0 0.00 0.00 0.00 70 1015.6
20260501180704 17 248 0.0 0.0 0.00 0.00 0.00 70 1015.6
20260501175704 17 248 0.0 0.0 0.00 0.00 0.00 70 1015.7
20260501175204 17 248 0.0 0.0 0.00 0.00 0.00 70 1015.7
20260501174706 17 248 0.0 0.0 0.00 0.00 0.00 70 1015.7
20260501174204 17 248 0.0 0.0 0.00 0.00 0.00 70 1015.7
20260501173704 17 248 0.0 0.0 0.00 0.00 0.00 69 1015.8
20260501173204 18 248 0.0 0.0 0.00 0.00 0.00 69 1015.8
20260501172704 18 248 0.0 0.0 0.00 0.00 0.00 69 1015.8
20260501171204 18 248 0.0 0.0 0.00 0.00 0.00 70 1015.9
20260501170703 18 248 0.0 0.0 0.00 0.00 0.00 69 1015.9
20260501170204 18 248 0.0 0.0 0.00 0.00 0.00 67 1015.9
20260501165204 18 248 0.0 0.0 0.00 0.00 0.00 66 1015.7
20260501164704 18 248 0.0 0.0 0.00 0.00 0.00 65 1015.7
20260501163704 18 248 0.0 0.0 0.00 0.00 0.00 63 1015.6
20260501163204 18 248 0.0 0.0 0.00 0.00 0.00 64 1015.6
20260501162704 18 248 0.0 0.0 0.00 0.00 0.00 65 1015.6
20260501162204 18 248 0.0 0.0 0.00 0.00 0.00 64 1015.6
20260501161704 18 248 0.0 0.0 0.00 0.00 0.00 64 1015.6
20260501161204 18 248 0.0 0.0 0.00 0.00 0.00 65 1015.6